Zurück zum Katalog

STARLINK-5873

AktivKommunikationVLEO
NORAD 56490·PAYLOAD·🇺🇸 United States

Gestartet May 10, 2023 von Vandenberg Space Force Base

Loading…

Nächste Überflüge (nächste 24 Stunden)

TLE

AktuellSource: CelesTrak SupGP

Epoche: Sep 14, 2026, 13:58 UTC

1 56490C 23064AU  26257.58243056  .00016216  00000+0  13592-2 0  2578
2 56490  70.0021 348.3405 0003175 270.4818  69.5303 14.98315791    14

Verfolge STARLINK-5873 in Echtzeit mit AllMySat

Download on the App Store